Weather History for KMHK - February, 2013

Change the Weather History Date:

Tuesday, February 12, 2013

  Actual Average Record
Temperature  
Mean Temperature 33 °F 32 °F  
Max Temperature 46 °F 44 °F - ()
Min Temperature 20 °F 20 °F - ()
Degree Days  
Heating Degree Days 32 33  
Month to date heating degree days 330 407  
Since 1 July heating degree days 3260 3673  
Cooling Degree Days 0 0  
Month to date cooling degree days 0 0  
Year to date cooling degree days 0 0  
Moisture  
Dew Point 22 °F    
Average Humidity 63    
Maximum Humidity 88    
Minimum Humidity 37    
Precipitation  
Precipitation 0.00 in 0.04 in - ()
Month to date precipitation 0.64 0.43  
Year to date precipitation 1.33 1.08  
Sea Level Pressure  
Sea Level Pressure 30.09 in    
Wind  
Wind Speed 3 mph (SW)    
Max Wind Speed 9 mph    
Max Gust Speed 12 mph    
Visibility 10 miles    
Events      
T = Trace of Precipitation, MM = Missing Value Source: NWS Daily Summary

Daily Weather History Graph

Daily Weather History Graph

Search for Another Location

Airport or City:

Trip Planner

Search our weather history database for the weather conditions in past years. The results will help you decide how hot, cold, wet, or windy it might be!

Date:

Astronomy

Feb. 12, 2013 Rise Set
Actual Time 7:21 AM CST 6:00 PM CST
Civil Twilight 6:54 AM CST 6:28 PM CST
Nautical Twilight 6:22 AM CST 6:59 PM CST
Astronomical Twilight 5:51 AM CST 7:30 PM CST
Moon 8:21 AM CST (2/12) 9:01 PM CST (2/12)
Length of Visible Light 11h 34m
Length of Day
10h 39m
Waxing Crescent, 7% of the Moon is Illuminated
Feb 12
Waxing Crescent
Feb 17
First Quarter
Feb 25
Full
Mar 4
Last Quarter
Mar 11
New

Hourly Weather History & Observations

Time (CST) Temp. Windchill Dew Point Humidity Pressure Visibility Wind Dir Wind Speed Gust Speed Precip Events Conditions
12:52 AM 23.0 °F - 19.0 °F 85% 30.22 in 10.0 mi Calm Calm - N/A   Clear
1:52 AM 23.0 °F - 19.0 °F 85% 30.18 in 10.0 mi Calm Calm - N/A   Clear
2:52 AM 21.9 °F - 18.0 °F 85% 30.16 in 10.0 mi Calm Calm - N/A   Clear
3:52 AM 25.0 °F - 21.0 °F 85% 30.15 in 10.0 mi Calm Calm - N/A   Clear
4:52 AM 26.1 °F - 21.0 °F 81% 30.18 in 10.0 mi Calm Calm - N/A   Clear
5:52 AM 25.0 °F - 21.0 °F 85% 30.16 in 10.0 mi Calm Calm - N/A   Clear
6:52 AM 21.0 °F - 18.0 °F 88% 30.16 in 10.0 mi Calm Calm - N/A   Clear
7:52 AM 24.1 °F - 19.9 °F 84% 30.15 in 10.0 mi Calm Calm - N/A   Clear
8:52 AM 27.0 °F - 23.0 °F 85% 30.15 in 10.0 mi Calm Calm - N/A   Clear
9:52 AM 30.9 °F - 25.0 °F 79% 30.16 in 10.0 mi Calm Calm - N/A   Clear
10:52 AM 35.1 °F - 27.0 °F 72% 30.15 in 10.0 mi Calm Calm - N/A   Clear
11:52 AM 41.0 °F 37.1 °F 24.1 °F 51% 30.12 in 10.0 mi SW 5.8 mph - N/A   Clear
12:52 PM 44.1 °F 41.5 °F 23.0 °F 43% 30.09 in 10.0 mi SSW 4.6 mph - N/A   Partly Cloudy
1:52 PM 45.0 °F 41.8 °F 21.0 °F 39% 30.06 in 10.0 mi WSW 5.8 mph - N/A   Overcast
2:52 PM 46.0 °F 42.5 °F 21.0 °F 37% 30.04 in 10.0 mi SW 6.9 mph - N/A   Overcast
3:52 PM 46.0 °F 41.9 °F 23.0 °F 40% 30.02 in 10.0 mi SW 8.1 mph - N/A   Partly Cloudy
4:52 PM 44.1 °F 39.0 °F 23.0 °F 43% 30.01 in 10.0 mi WSW 9.2 mph - N/A   Clear
5:52 PM 41.0 °F 37.1 °F 24.1 °F 51% 30.01 in 10.0 mi WSW 5.8 mph - N/A   Clear
6:52 PM 37.0 °F 33.3 °F 24.1 °F 59% 30.01 in 10.0 mi WSW 4.6 mph - N/A   Clear
7:52 PM 34.0 °F 28.0 °F 24.1 °F 67% 30.01 in 10.0 mi SW 6.9 mph - N/A   Clear
8:52 PM 32.0 °F 25.6 °F 24.1 °F 73% 30.01 in 10.0 mi SW 6.9 mph - N/A   Clear
9:52 PM 30.0 °F 24.1 °F 23.0 °F 75% 30.01 in 10.0 mi WSW 5.8 mph - N/A   Clear
10:52 PM 30.9 °F 27.5 °F 23.0 °F 72% 30.00 in 10.0 mi WSW 3.5 mph - N/A   Clear
11:52 PM 27.0 °F 21.6 °F 21.0 °F 78% 29.99 in 10.0 mi WSW 4.6 mph - N/A   Clear